[[{"header":{"parameterUnit":"m.s-1","parameterCategory":1,"la1":30.2991,"la2":30.254,"lo1":-89.0895,"lo2":-89.0444,"dy":0.0017,"dx":0.0017,"nx":28,"ny":28,"refTime":"2025-04-24T03:00:00:Z","depth":0,"parameterNumber":2,"parameterNumberName":"U-component_of_WINDS"},"data":[0,0,0,0,0,0,0,0,0,0,0,0,0,0,0,0,0,0,0,0,0,0,0,0,0,0,0,0,0,0,0,0,0,0,0,0,0,0,0,0,0,0,0,0,0,0,0,0,0,0,0,0,0,0,0,0,0,0,-3.3868,-3.3869,0,-3.3976,-3.3978,-3.3979,-3.3963,-3.3961,-3.3959,-3.3957,-3.4069,-3.4074,-3.4079,0,0,0,0,0,0,0,0,0,0,0,0,0,-3.3648,-3.3652,-3.3867,-3.3869,-3.387,-3.3976,-3.3978,-3.3979,-3.3963,-3.3961,-3.3959,-3.3957,-3.4068,-3.4073,-3.4079,0,0,0,0,0,0,0,0,0,0,0,0,0,-3.3748,-3.3653,-3.3867,-3.3875,-3.3877,-3.3976,-3.3978,-3.398,-3.3964,-3.3961,-3.3958,-3.3956,-3.4066,-3.4073,-3.408,-3.4178,0,0,-3.4101,-3.4104,0,0,0,0,0,0,0,0,-3.3743,-3.3756,-3.3872,-3.3875,-3.3877,-3.3953,-3.3941,-3.4046,-3.3964,-3.3931,-3.3957,-3.3954,-3.4033,-3.4043,-3.4069,-3.4183,-3.4188,-3.4102,-3.4106,-3.4109,-3.4111,0,0,0,0,0,0,0,-3.3736,-3.3752,-3.3911,-3.3874,-3.3877,-3.3874,-3.3885,-3.3961,-3.3996,-3.3933,-3.3932,-3.3946,-3.4034,-3.4062,-3.4072,-3.419,-3.4102,-3.4108,-3.4112,-3.4115,-3.4392,-3.4395,0,0,0,0,0,0,-3.3726,-3.3746,-3.3907,-3.3914,-3.3802,-3.388,-3.3892,-3.3931,-3.3995,-3.4002,-3.3948,-3.3944,-3.4052,-3.4063,-3.4075,-3.4195,-3.4109,-3.4116,-3.412,-3.4389,-3.4392,-3.4396,0,0,0,0,0,0,-3.3722,-3.3741,-3.3903,-3.383,-3.385,-3.3886,-3.393,-3.3935,-3.3964,-3.4006,-3.4012,-3.397,-3.405,-3.4065,-3.4153,-3.4199,-3.4119,-3.4125,-3.4385,-3.439,-3.4394,-3.4435,0,0,0,0,0,0,-3.3716,-3.3739,-3.3777,-3.3831,-3.3854,-3.3978,-3.3933,-3.3939,-3.3976,-3.3972,-3.4029,-3.4036,-3.4049,-3.4143,-3.416,-3.4207,-3.4131,-3.4381,-3.4387,-3.4393,-3.4429,-3.444,-3.4449,0,0,0,0,0,-3.3708,-3.3784,-3.3778,-3.3798,-3.3901,-3.3981,-3.3994,-3.4008,-3.3979,-3.4017,-3.4045,-3.4034,-3.4191,-3.4152,-3.4171,-3.4221,-3.4378,-3.4385,-3.4392,-3.4425,-3.4438,-3.4449,0,0,0,0,0,0,-3.3734,-3.3791,-3.3786,-3.3881,-3.3926,-3.3978,-3.4026,-3.4021,-3.4075,-3.4069,-3.4084,-3.4097,-3.4186,-3.4212,-3.4167,-3.432,-3.4281,-3.4292,-3.4299,-3.4312,-3.4322,-3.4313,-3.4137,0,0,0,0,0,-3.3751,-3.381,-3.3857,-3.3937,-3.3959,-3.3989,-3.4024,-3.4031,-3.4078,-3.4097,-3.4131,-3.4177,-3.4237,-3.4276,-3.4334,-3.4434,-3.4446,-3.4478,-3.4488,-3.4496,-3.4505,-3.456,-3.4575,-3.4419,-3.4419,-3.4419,0,0,-3.3786,-3.3824,-3.3861,-3.3943,-3.3978,-3.404,-3.4005,-3.4071,-3.4117,-3.4107,-3.4191,-3.4218,-3.4271,-3.4366,-3.4409,-3.439,-3.4551,-3.4505,-3.4511,-3.4516,-3.4569,-3.4584,-3.4597,-3.4424,-3.4423,-3.4422,0,0,-3.3881,-3.3916,-3.3987,-3.4024,-3.4078,-3.4098,-3.4115,-3.4168,-3.4185,-3.427,-3.4264,-3.432,-3.4422,-3.4461,-3.4493,-3.4606,-3.4598,-3.4624,-3.4676,-3.473,-3.4742,-3.4753,-3.4792,-3.4807,-3.4634,-3.4634,-3.4634,0,-3.3918,-3.4009,-3.4024,-3.4091,-3.4127,-3.4122,-3.4194,-3.4229,-3.43,-3.4325,-3.4304,-3.4434,-3.4469,-3.4572,-3.46,-3.4627,-3.4647,-3.4617,-3.4739,-3.475,-3.4761,-3.4799,-3.4813,-3.4637,-3.4636,-3.4636,-3.4636,0,-3.4052,-3.4116,-3.4167,-3.4235,-3.4278,-3.4347,-3.4372,-3.4414,-3.4418,-3.444,-3.4527,-3.457,-3.4636,-3.4662,-3.4666,-3.4766,-3.4753,-3.4735,-3.4696,-3.4778,-3.4814,-3.4829,-3.4641,-3.464,-3.4639,-3.4638,0,0,-3.4164,-3.4241,-3.4259,-3.429,-3.4351,-3.4401,-3.4471,-3.4536,-3.4571,-3.4621,-3.468,-3.4769,-3.4753,-3.4791,-3.48,-3.4847,-3.4933,-3.4824,-3.4825,-3.4842,-3.5046,-3.5058,-3.5074,-3.4929,-3.4932,-3.4934,-3.5041,0,-3.4265,-3.4387,-3.4403,-3.4512,-3.4571,-3.4568,-3.4629,-3.4673,-3.4697,-3.4751,-3.4777,-3.4839,-3.4814,-3.4837,-3.4884,-3.4913,-3.4974,-3.4905,-3.4984,-3.4986,-3.4969,-3.5093,-3.5106,-3.5205,-3.5056,-3.5058,-3.506,0,-3.4398,-3.4451,-3.4566,-3.4619,-3.4645,-3.4699,-3.4761,-3.4813,-3.4864,-3.4877,-3.492,-3.4924,-3.4997,-3.4956,-3.5057,-3.501,-3.5043,-3.5063,-3.5067,-3.5073,-3.5027,-3.5102,-3.5237,-3.5251,-3.5082,-3.508,-3.5079,0,-3.4467,-3.4568,-3.465,-3.4677,-3.4742,-3.478,-3.4809,-3.4857,-3.4895,-3.495,-3.4975,-3.5037,-3.5071,-3.5119,-3.514,-3.5108,-3.524,-3.5201,-3.5253,-3.5253,-3.5279,-3.5277,-3.542,-3.5303,-3.5303,-3.5303,-3.5302,0,-3.4577,-3.4647,-3.4682,-3.4732,-3.4811,-3.4829,-3.4907,-3.4935,-3.4978,-3.5034,-3.5036,-3.5089,-3.5113,-3.517,-3.5187,-3.5268,-3.5284,-3.5297,-3.53,-3.5296,-3.5294,-3.5316,-3.531,-3.5307,-3.5306,-3.5305,-3.5304,0,-3.4666,-3.4693,-3.4782,-3.4836,-3.4852,-3.4908,-3.4954,-3.5004,-3.5027,-3.5098,-3.5116,-3.5153,-3.522,-3.5246,-3.5328,-3.5339,-3.5433,-3.5431,-3.5415,-3.5416,-3.5466,-3.5461,-3.5627,-3.565,-3.552,-3.5521,-3.5522,0,-3.4734,-3.4788,-3.4848,-3.4886,-3.4916,-3.4977,-3.5016,-3.5037,-3.5078,-3.5141,-3.5183,-3.525,-3.5304,-3.5412,-3.5446,-3.5509,-3.5509,-3.5563,-3.5518,-3.5512,-3.5509,-3.5504,-3.551,-3.557,-3.5572,-3.5573,-3.5574,0,-3.4851,-3.4861,-3.4918,-3.498,-3.5027,-3.5076,-3.5125,-3.5156,-3.5184,-3.523,-3.5299,-3.5341,-3.5426,-3.5492,-3.5557,-3.5588,-3.5586,-3.5588,-3.5603,-3.5599,-3.5587,-3.5593,-3.5436,-3.5584,-3.5583,-3.5582,-3.5581,-3.5581,-3.4931,-3.4979,-3.5029,-3.5092,-3.5131,-3.5176,-3.5225,-3.5255,-3.5313,-3.5382,-3.5392,-3.5466,-3.5517,-3.5604,-3.5638,-3.5696,-3.5682,-3.5704,-3.5709,-3.5714,-3.5717,-3.5579,-3.5708,-3.5708,-3.5708,-3.5708,-3.5707,0,-3.5047,-3.5079,-3.5137,-3.5205,-3.5255,-3.525,-3.5303,-3.5346,-3.541,-3.5458,-3.5512,-3.5591,-3.5656,-3.5697,-3.5763,-3.5802,-3.5802,-3.5818,-3.5815,-3.5822,-3.5727,-3.5706,-3.5816,-3.5816,-3.5816,-3.5816,-3.5816,-3.5816,-3.5113,-3.5193,-3.5211,-3.5311,-3.5344,-3.5415,-3.5446,-3.5489,-3.5527,-3.5615,-3.5669,-3.5696,-3.5741,-3.581,-3.587,-3.588,-3.5904,-3.592,-3.593,-3.584,-3.5828,-3.5817,-3.5798,-3.5926,-3.5926,-3.602,-3.602,-3.6021]},{"header":{"parameterUnit":"m.s-1","parameterCategory":1,"la1":30.2991,"la2":30.254,"lo1":-89.0895,"lo2":-89.0444,"dy":0.0017,"dx":0.0017,"nx":28,"ny":28,"refTime":"2025-04-24T03:00:00:Z","depth":0,"parameterNumber":3,"parameterNumberName":"V-component_of_WINDS"},"data":[0,0,0,0,0,0,0,0,0,0,0,0,0,0,0,0,0,0,0,0,0,0,0,0,0,0,0,0,0,0,0,0,0,0,0,0,0,0,0,0,0,0,0,0,0,0,0,0,0,0,0,0,0,0,0,0,0,0,3.6377,3.6377,0,3.6402,3.6403,3.6403,3.6359,3.6357,3.6356,3.6354,3.6377,3.6379,3.6381,0,0,0,0,0,0,0,0,0,0,0,0,0,3.6288,3.629,3.6377,3.6377,3.6378,3.6402,3.6403,3.6403,3.6359,3.6357,3.6355,3.6354,3.6377,3.6379,3.6381,0,0,0,0,0,0,0,0,0,0,0,0,0,3.6322,3.6291,3.6377,3.6359,3.6357,3.6402,3.6403,3.6403,3.6359,3.6357,3.6355,3.6353,3.6376,3.6379,3.6382,3.6445,0,0,3.6391,3.6392,0,0,0,0,0,0,0,0,3.632,3.6325,3.6361,3.636,3.6359,3.6375,3.638,3.6417,3.636,3.6358,3.6354,3.6352,3.6378,3.6381,3.639,3.6446,3.6447,3.6391,3.6393,3.6394,3.6395,0,0,0,0,0,0,0,3.6318,3.6323,3.6387,3.6362,3.636,3.6349,3.6351,3.6387,3.638,3.6358,3.6355,3.6359,3.6377,3.6387,3.639,3.6447,3.6391,3.6394,3.6395,3.6397,3.6556,3.6559,0,0,0,0,0,0,3.6318,3.6322,3.6386,3.6388,3.6333,3.6352,3.6354,3.6372,3.638,3.6379,3.6361,3.6357,3.6383,3.6387,3.6391,3.6466,3.6394,3.6397,3.6399,3.6554,3.6557,3.6559,0,0,0,0,0,0,3.6316,3.6324,3.6385,3.6354,3.6361,3.6356,3.6376,3.6374,3.6384,3.6382,3.638,3.6373,3.6382,3.6387,3.6432,3.6466,3.6398,3.6401,3.6551,3.6555,3.6558,3.6616,0,0,0,0,0,0,3.6314,3.6324,3.6348,3.6355,3.6363,3.6426,3.6378,3.6376,3.639,3.6385,3.6393,3.6392,3.638,3.6428,3.6435,3.6469,3.6403,3.6548,3.6553,3.6557,3.6611,3.6621,3.663,0,0,0,0,0,3.6311,3.6362,3.6349,3.6357,3.6393,3.6428,3.6433,3.642,3.6393,3.6417,3.6416,3.6392,3.6461,3.6433,3.6441,3.6476,3.6546,3.6551,3.6557,3.6607,3.6619,3.663,0,0,0,0,0,0,3.6358,3.6363,3.6349,3.6404,3.6417,3.6421,3.6451,3.6433,3.6452,3.6447,3.6429,3.6431,3.648,3.6482,3.645,3.6538,3.6499,3.6506,3.6534,3.6546,3.6555,3.6554,3.6406,0,0,0,0,0,3.6375,3.6404,3.6407,3.6455,3.6462,3.6456,3.6471,3.646,3.6471,3.6476,3.6477,3.6489,3.6514,3.653,3.6552,3.6611,3.6613,3.664,3.6649,3.6657,3.6663,3.6695,3.6708,3.6578,3.6577,3.6577,0,0,3.641,3.6417,3.6436,3.6465,3.6473,3.6503,3.646,3.6494,3.6516,3.648,3.6524,3.6526,3.6537,3.659,3.6613,3.6593,3.67,3.6664,3.667,3.6672,3.6702,3.6715,3.6726,3.6581,3.6581,3.658,0,0,3.649,3.6498,3.654,3.6549,3.6563,3.6558,3.6569,3.6576,3.6577,3.662,3.6595,3.662,3.6662,3.6672,3.6682,3.6768,3.6746,3.6775,3.6824,3.6856,3.6866,3.6875,3.6906,3.6917,3.6782,3.6782,3.6782,0,3.6532,3.6577,3.6563,3.6599,3.6613,3.6584,3.6626,3.6635,3.6655,3.6665,3.6643,3.6697,3.6702,3.6757,3.6778,3.6788,3.6799,3.6774,3.6866,3.6875,3.6883,3.6912,3.6924,3.6785,3.6785,3.6785,3.6784,0,3.6628,3.6659,3.6692,3.6713,3.673,3.6769,3.6761,3.678,3.6768,3.6766,3.681,3.6816,3.684,3.6852,3.684,3.6906,3.6893,3.6869,3.6829,3.6899,3.6926,3.6937,3.679,3.6789,3.6788,3.6787,0,0,3.6737,3.6752,3.6764,3.6774,3.6787,3.6811,3.6848,3.6873,3.689,3.6904,3.6935,3.6973,3.6951,3.6963,3.6952,3.6979,3.7047,3.6952,3.6952,3.6969,3.712,3.7139,3.7152,3.7033,3.7035,3.7037,3.712,0,3.6816,3.6882,3.6872,3.6935,3.6965,3.6938,3.6971,3.6983,3.6982,3.7006,3.7004,3.7032,3.7,3.7008,3.7034,3.7033,3.7077,3.7027,3.7061,3.7063,3.706,3.7166,3.7185,3.7263,3.713,3.7132,3.7133,0,3.6918,3.6938,3.7005,3.7015,3.7027,3.7057,3.7079,3.7102,3.7115,3.7113,3.7127,3.7111,3.7148,3.7108,3.7159,3.7126,3.7139,3.7141,3.7144,3.7146,3.7102,3.7171,3.7287,3.7299,3.7149,3.7148,3.7147,0,3.6991,3.7035,3.7081,3.7091,3.7103,3.7125,3.7131,3.7142,3.7157,3.7176,3.7186,3.7209,3.7221,3.7239,3.7229,3.7201,3.7282,3.7242,3.7281,3.7281,3.7299,3.7298,3.7418,3.7308,3.7307,3.7307,3.7307,0,3.7081,3.7123,3.7115,3.7143,3.719,3.7177,3.7223,3.7226,3.7236,3.7264,3.7242,3.7268,3.7254,3.728,3.7272,3.7316,3.7321,3.732,3.7318,3.7322,3.7323,3.7331,3.7325,3.731,3.731,3.7309,3.7309,0,3.7171,3.7167,3.7216,3.7224,3.7228,3.7262,3.7269,3.7295,3.7293,3.7329,3.7336,3.7333,3.7362,3.7355,3.7385,3.7381,3.7436,3.7426,3.7432,3.743,3.747,3.7466,3.76,3.7617,3.7495,3.7496,3.7497,0,3.7229,3.7261,3.7274,3.7292,3.73,3.7329,3.7345,3.7334,3.7352,3.737,3.7394,3.7421,3.7442,3.749,3.749,3.7514,3.7505,3.755,3.7508,3.7512,3.7506,3.7504,3.7508,3.7558,3.756,3.7561,3.7562,0,3.7332,3.7329,3.7354,3.7379,3.74,3.7418,3.7435,3.745,3.744,3.7462,3.7492,3.7508,3.7541,3.7569,3.7591,3.7596,3.7578,3.7575,3.7586,3.7591,3.7593,3.7593,3.7455,3.7572,3.7571,3.757,3.757,3.7569,3.7408,3.7436,3.7449,3.7478,3.749,3.7506,3.7532,3.7534,3.7559,3.7586,3.7577,3.7612,3.7624,3.7652,3.7661,3.7687,3.767,3.7685,3.7689,3.7693,3.7698,3.7589,3.7691,3.7691,3.7691,3.769,3.769,0,3.751,3.7518,3.7545,3.757,3.7593,3.7575,3.7592,3.7612,3.7643,3.7657,3.7679,3.7714,3.7741,3.7743,3.7769,3.7789,3.7782,3.7796,3.7795,3.7796,3.7712,3.77,3.7802,3.7802,3.7802,3.7802,3.7802,3.7802,3.7566,3.7613,3.7611,3.7663,3.767,3.7705,3.7717,3.7732,3.7743,3.7783,3.7806,3.7808,3.7817,3.7843,3.7867,3.7867,3.7877,3.7896,3.7893,3.7813,3.7802,3.7792,3.7781,3.7898,3.7898,3.7975,3.7976,3.7976]}]]